Estación de Contra Coronel

Ultimos registro cada 15 minutos 33
Estación Fecha / Hora Temperatura Humedad Lluvia Velocidad Dirección Radiación Presion
33 Contra Coronel 05-09-2026 08:00 3,2 99,3 0 0 243 113,1 1026,6
32 Contra Coronel 05-09-2026 07:45 2,6 99,9 0 0 161 73,1 1026,5
31 Contra Coronel 05-09-2026 07:30 1,5 100 0 0 157 19,4 1026,4
30 Contra Coronel 05-09-2026 07:15 0,5 100 0 0 160 5,6 1026,4
29 Contra Coronel 05-09-2026 07:00 0,9 100 0 0 183 0,6 1026,4
28 Contra Coronel 05-09-2026 06:45 1,5 100 0 0 93 0,6 1026,2
27 Contra Coronel 05-09-2026 06:30 2 100 0 0 174 0,6 1026,2
26 Contra Coronel 05-09-2026 06:15 2,6 100 0 0 219 0,6 1026,1
25 Contra Coronel 05-09-2026 06:00 2,5 100 0 0 191 0,6 1025,9
24 Contra Coronel 05-09-2026 05:45 2,2 100 0 0 254 0,6 1025,9
23 Contra Coronel 05-09-2026 05:30 2,1 99,8 0 0 254 0,6 1025,8
22 Contra Coronel 05-09-2026 05:15 2,9 99,9 0 0 309 0,6 1025,8
21 Contra Coronel 05-09-2026 05:00 3,6 99,9 0 0 295 0,6 1025,7
20 Contra Coronel 05-09-2026 04:45 4,2 99,7 0 0 187 0,6 1025,6
19 Contra Coronel 05-09-2026 04:30 4,6 99,7 0 0,7 183 0,6 1025,5
18 Contra Coronel 05-09-2026 04:15 5 99,6 0 0,7 192 0,6 1025,5
17 Contra Coronel 05-09-2026 04:00 5,1 99,6 0 0,3 181 0,6 1025,6
16 Contra Coronel 05-09-2026 03:45 5,4 99,6 0 0,7 187 0,6 1025,7
15 Contra Coronel 05-09-2026 03:30 5,5 99,7 0 0,7 190 0,6 1025,9
14 Contra Coronel 05-09-2026 03:15 5,7 99,6 0 0 195 0,6 1025,9
13 Contra Coronel 05-09-2026 03:00 6,2 99,6 0 0 195 0,6 1026,1
12 Contra Coronel 05-09-2026 02:45 6,3 99,7 0 0,7 187 0,6 1026,1
11 Contra Coronel 05-09-2026 02:30 5,4 99,8 0 0 194 0,6 1026,1
10 Contra Coronel 05-09-2026 02:15 4,8 99,6 0 0 197 0,6 1026
9 Contra Coronel 05-09-2026 02:00 5 99,5 0 0 197 0,6 1025,8
8 Contra Coronel 05-09-2026 01:45 4,9 99,2 0 0 197 0,6 1026
7 Contra Coronel 05-09-2026 01:30 5,8 99,1 0 0 197 0,6 1025,9
6 Contra Coronel 05-09-2026 01:15 6,4 99,1 0 0 197 0,6 1025,8
5 Contra Coronel 05-09-2026 01:00 7 99,2 0 0 202 0,6 1025,8
4 Contra Coronel 05-09-2026 00:45 7,2 99,3 0 0 202 0,6 1025,7
3 Contra Coronel 05-09-2026 00:30 7,3 99,3 0 0,3 194 0,6 1025,7
2 Contra Coronel 05-09-2026 00:15 7,5 99,4 0 0,3 183 0,6 1025,8
1 Contra Coronel 05-09-2026 00:00 7,6 99,4 0 0 163 0,6 1025,8